This is the latest recevied weather packets stored in our database for station/object K2RMB. If no packets are shown the sender has not sent any weather packets the latest 10 day(s).
| Time | Temp. | Humidity | Pressure | Rain* | Wind** | Luminosity | Snow |
|---|---|---|---|---|---|---|---|
| 1777121900 | 8.33° C | 53% | 1017.4 hPa | 0 mm | - | 339 W/m² | - |
| 1777121597 | 7.78° C | 53% | 1017.4 hPa | 0 mm | - | 383 W/m² | - |
| 1777121293 | 7.22° C | 55% | 1017.4 hPa | 0 mm | - | 407 W/m² | - |
| 1777120990 | 7.22° C | 54% | 1017.8 hPa | 0 mm | - | 260 W/m² | - |
| 1777120686 | 7.22° C | 55% | 1017.8 hPa | 0 mm | - | 408 W/m² | - |
| 1777120382 | 6.67° C | 56% | 1017.8 hPa | 0 mm | - | 354 W/m² | - |
| 1777120077 | 6.11° C | 57% | 1017.4 hPa | 0 mm | - | 324 W/m² | - |
| 1777119773 | 6.11° C | 58% | 1017.8 hPa | 0 mm | - | 186 W/m² | - |
| 1777119470 | 6.11° C | 59% | 1017.8 hPa | 0 mm | - | 156 W/m² | - |
| 1777119170 | 6.11° C | 58% | 1017.4 hPa | 0 mm | - | 140 W/m² | - |
| 1777118865 | 6.11° C | 58% | 1017.4 hPa | 0 mm | - | 85 W/m² | - |
| 1777118562 | 6.11° C | 58% | 1017.4 hPa | 0 mm | - | 163 W/m² | - |
| 1777118262 | 5.56° C | 60% | 1017.8 hPa | 0 mm | - | 173 W/m² | - |
| 1777117959 | 5° C | 60% | 1017.8 hPa | 0 mm | - | 141 W/m² | - |
| 1777117656 | 5° C | 62% | 1017.4 hPa | 0 mm | - | 161 W/m² | - |
| 1777117354 | 5° C | 63% | 1017.8 hPa | 0 mm | - | 54 W/m² | - |
| 1777117049 | 5° C | 64% | 1017.8 hPa | 0 mm | - | 66 W/m² | - |
| 1777116744 | 4.44° C | 64% | 1017.8 hPa | 0 mm | - | 47 W/m² | - |
| 1777116440 | 4.44° C | 62% | 1017.8 hPa | 0 mm | - | 57 W/m² | - |
| 1777116137 | 4.44° C | 62% | 1017.8 hPa | 0 mm | - | 49 W/m² | - |
| 1777115836 | 4.44° C | 65% | 1017.8 hPa | 0 mm | - | 41 W/m² | - |
| 1777115532 | 4.44° C | 65% | 1017.4 hPa | 0 mm | - | 38 W/m² | - |
| 1777115229 | 3.89° C | 64% | 1017.4 hPa | 0 mm | - | 36 W/m² | - |
| 1777114925 | 3.89° C | 65% | 1017.4 hPa | 0 mm | - | 33 W/m² | - |
| 1777114622 | 3.89° C | 66% | 1017.8 hPa | 0 mm | - | 32 W/m² | - |
* Rain latest hour (hover to see other rain measurements)
** Current wind speed in m/s (hover to see current wind gust speed)